DK4DAX-2 Weather Reports


Display with metric or nautical units.
time (UTC)temp
F
wind
direction
speed
MPH
gust
MPH
rain 1hr
in
rain 24hr
in
rain mn
in
humidity
%
barometer
mb
20260507001502 50 0 0.0 0.0 0.00 0.01 0.00 92 1003.9
20260507000003 50 0 0.0 0.0 0.00 0.01 0.00 93 1003.9
20260506234502 50 0 0.0 0.0 0.00 0.01 0.00 93 1004.0
20260506233002 50 0 0.0 0.0 0.00 0.01 0.00 93 1004.0
20260506231502 50 0 0.0 0.0 0.00 0.01 0.00 94 1003.8
20260506230002 50 157 0.0 1.0 0.00 0.01 0.00 94 1003.9
20260506224502 50 200 0.0 2.0 0.00 0.01 0.00 95 1003.7
20260506223002 50 135 0.0 2.0 0.00 0.01 0.00 95 1003.6
20260506221502 50 205 0.0 2.0 0.00 0.01 0.00 95 1003.5
20260506220004 50 137 0.0 2.0 0.00 0.01 0.00 96 1003.4
20260506214502 50 135 0.0 1.0 0.00 0.01 0.01 96 1003.3
20260506213002 50 0 0.0 0.0 0.00 0.01 0.01 97 1003.1
20260506211502 51 214 0.0 2.0 0.00 0.01 0.01 97 1003.0
20260506210003 51 130 0.0 2.0 0.00 0.01 0.01 97 1002.9
20260506204502 51 111 0.0 3.0 0.00 0.01 0.01 97 1002.7
20260506203002 51 112 0.0 1.0 0.00 0.01 0.01 97 1002.8
20260506201503 51 135 0.0 2.0 0.00 0.01 0.01 96 1002.7
20260506200003 51 90 0.0 2.0 0.00 0.01 0.01 96 1002.9
20260506194502 51 0 0.0 0.0 0.00 0.01 0.01 95 1002.3
20260506193003 51 217 0.0 1.0 0.00 0.01 0.01 94 1002.3
20260506191502 51 137 0.0 1.0 0.00 0.01 0.01 93 1002.1
20260506190002 51 204 0.0 1.0 0.00 0.01 0.01 93 1002.2
20260506184503 51 0 0.0 0.0 0.00 0.01 0.01 93 1002.0
20260506183002 52 0 0.0 0.0 0.00 0.01 0.01 93 1001.8
20260506181502 52 0 0.0 0.0 0.00 0.01 0.01 91 1001.5
20260506180003 52 0 0.0 0.0 0.00 0.01 0.01 91 1001.5
20260506174502 52 135 0.0 1.0 0.00 0.01 0.01 91 1001.3
20260506173002 52 90 0.0 1.0 0.00 0.01 0.01 92 1001.2
20260506171502 53 0 0.0 0.0 0.00 0.01 0.01 92 1001.3
20260506170003 52 165 0.0 1.0 0.00 0.01 0.01 92 1001.2
20260506164502 52 1 0.0 1.0 0.00 0.01 0.01 92 1000.9
20260506163002 52 245 0.0 4.0 0.00 0.01 0.01 91 1000.9
20260506161503 53 270 0.0 1.0 0.00 0.01 0.01 91 1000.8
20260506160002 53 134 0.0 2.0 0.00 0.01 0.01 91 1000.7
20260506154503 53 170 0.0 1.0 0.00 0.01 0.01 91 1000.6
20260506153002 53 200 0.0 2.0 0.00 0.01 0.01 90 1000.7
20260506151502 54 141 1.0 2.0 0.00 0.01 0.01 89 1000.7
20260506150003 54 173 0.0 3.0 0.00 0.01 0.01 88 1000.4
20260506144502 53 123 1.0 2.0 0.00 0.01 0.01 89 1000.5
20260506143002 54 333 0.0 4.0 0.00 0.01 0.01 88 1000.5
20260506141503 54 121 0.0 2.0 0.00 0.01 0.01 88 1000.3
20260506140002 54 27 0.0 2.0 0.00 0.01 0.01 88 1000.2
20260506134502 55 126 0.0 4.0 0.00 0.01 0.01 88 1000.2
20260506133003 55 124 0.0 2.0 0.00 0.01 0.01 89 1000.2
20260506131503 54 112 0.0 2.0 0.00 0.01 0.01 87 1000.3
20260506130003 55 270 0.0 2.0 0.00 0.01 0.01 87 1000.1
20260506124503 55 155 0.0 2.0 0.00 0.01 0.01 88 999.6
20260506123003 55 145 2.0 2.0 0.00 0.01 0.01 88 999.7
20260506121502 56 0 0.0 0.0 0.00 0.01 0.01 88 999.8
20260506120003 55 83 0.0 2.0 0.00 0.01 0.01 88 999.8
20260506114502 55 140 0.0 3.0 0.00 0.01 0.01 86 999.4
20260506113002 56 183 1.0 3.0 0.00 0.01 0.01 86 999.3
20260506111502 57 123 0.0 2.0 0.00 0.01 0.01 89 999.2
20260506110003 56 237 0.0 3.0 0.00 0.01 0.01 91 999.0
20260506104502 56 172 0.0 2.0 0.00 0.01 0.01 92 999.1
20260506103003 55 200 0.0 2.0 0.00 0.01 0.01 91 999.1
20260506101503 56 139 0.0 2.0 0.00 0.01 0.01 92 998.9
20260506100002 56 205 0.0 2.0 0.00 0.01 0.01 93 998.7
20260506094503 56 225 0.0 1.0 0.00 0.01 0.01 94 998.8
20260506093003 56 90 0.0 1.0 0.00 0.01 0.01 94 998.6
20260506091502 55 314 0.0 1.0 0.00 0.01 0.01 95 998.4
20260506090003 55 225 0.0 2.0 0.00 0.01 0.01 96 998.6
20260506084502 55 0 0.0 0.0 0.00 0.01 0.01 97 998.4
20260506083002 55 135 0.0 1.0 0.00 0.01 0.01 97 998.5
20260506081502 55 181 0.0 2.0 0.00 0.01 0.01 97 998.0
20260506073003 54 0 0.0 0.0 0.00 0.01 0.01 97 997.8
20260506071503 54 0 0.0 0.0 0.00 0.01 0.01 97 998.1
20260506061502 54 0 0.0 0.0 0.00 0.01 0.01 97 997.7
20260506044502 53 270 0.0 2.0 0.00 0.01 0.01 98 997.6
20260506043002 53 0 0.0 0.0 0.00 0.01 0.01 98 997.7
20260506041503 53 0 0.0 0.0 0.00 0.01 0.01 98 998.0
20260506040003 53 0 0.0 0.0 0.00 0.01 0.01 98 997.4
20260506034503 53 122 0.0 1.0 0.00 0.01 0.01 98 997.6
20260506033003 53 0 0.0 0.0 0.00 0.01 0.01 98 997.6
20260506031502 53 0 0.0 0.0 0.00 0.01 0.01 98 997.8
20260506030003 53 0 0.0 0.0 0.01 0.01 0.01 98 998.0
20260506024503 53 135 0.0 1.0 0.01 0.01 0.01 98 998.0
20260506023003 54 0 0.0 0.0 0.01 0.01 0.01 97 998.1
20260506021503 54 0 0.0 0.0 0.01 0.01 0.01 97 998.4
20260506020002 54 0 0.0 0.0 0.00 0.00 0.00 97 998.2
20260506014503 54 0 0.0 0.0 0.00 0.00 0.00 97 998.4
20260506013003 54 181 0.0 1.0 0.00 0.00 0.00 97 998.5
20260506011502 54 182 0.0 3.0 0.00 0.00 0.00 97 998.5
20260506010003 54 154 0.0 2.0 0.00 0.00 0.00 97 998.6
20260506004503 54 129 0.0 2.0 0.00 0.00 0.00 97 998.7
20260506003003 54 173 0.0 2.0 0.00 0.00 0.00 97 998.9